TVF05BD LFPO-LFMN

Flight info

Callsign TVF05BD
Flight time N/A
Altitude 35000
Route LATRA DCT LAMUT DCT UTUVA DCT LERGA DCT LIQID DCT LATAM DCT TUNUR DCT NISAR
Aircraft A20N/M-SDE2E3FGHIRWXY/LB1

Departure

Time 2026-05-01 14:41
Airport Paris-Orly Airport (LFPO)

Arrival

Time N/A
Airport Nice-Côte d'Azur Airport (LFMN)
Time Latitude Longitude Altitude Speed Heading
2026-05-01 14:10 48.72695 2.36593 288 ft 0 kts
2026-05-01 14:31 48.72688 2.36592 288 ft 2 kts
2026-05-01 14:31 48.72673 2.36590 288 ft 2 kts
2026-05-01 14:31 48.72659 2.36588 288 ft 2 kts
2026-05-01 14:32 48.72643 2.36587 287 ft 1 kts
2026-05-01 14:32 48.72634 2.36585 287 ft 2 kts 359°
2026-05-01 14:32 48.72619 2.36590 287 ft 2 kts 336°
2026-05-01 14:32 48.72606 2.36602 287 ft 2 kts 317°
2026-05-01 14:33 48.72596 2.36619 287 ft 2 kts 299°
2026-05-01 14:33 48.72591 2.36640 287 ft 2 kts 281°
2026-05-01 14:33 48.72590 2.36663 288 ft 2 kts 262°
2026-05-01 14:33 48.72591 2.36675 288 ft 1 kts 251°
2026-05-01 14:34 48.72593 2.36681 288 ft 0 kts 252°
2026-05-01 14:35 48.72592 2.36677 288 ft 2 kts 252°
2026-05-01 14:35 48.72561 2.36616 286 ft 12 kts 199°
2026-05-01 14:35 48.72484 2.36570 286 ft 12 kts 246°
2026-05-01 14:35 48.72456 2.36412 284 ft 17 kts 253°
2026-05-01 14:36 48.72422 2.36229 283 ft 18 kts 255°
2026-05-01 14:36 48.72386 2.36041 283 ft 18 kts 255°
2026-05-01 14:36 48.72351 2.35848 280 ft 19 kts 254°
2026-05-01 14:36 48.72305 2.35651 280 ft 19 kts 231°
2026-05-01 14:37 48.72194 2.35613 280 ft 11 kts 163°
2026-05-01 14:37 48.72160 2.35629 280 ft 0 kts 163°
2026-05-01 14:37 48.72155 2.35631 280 ft 2 kts 163°
2026-05-01 14:37 48.72133 2.35641 280 ft 5 kts 163°
2026-05-01 14:38 48.72087 2.35667 280 ft 9 kts 153°
2026-05-01 14:38 48.72034 2.35740 281 ft 7 kts 124°
2026-05-01 14:38 48.72032 2.35744 281 ft 0 kts 123°
2026-05-01 14:39 48.72029 2.35751 281 ft 3 kts 122°
2026-05-01 14:39 48.72000 2.35821 283 ft 12 kts 122°
2026-05-01 14:39 48.71960 2.35960 283 ft 15 kts 83°
2026-05-01 14:39 48.71964 2.35988 283 ft 0 kts 75°
2026-05-01 14:40 48.71971 2.36024 283 ft 19 kts 74°
2026-05-01 14:41 48.72082 2.36622 283 ft 96 kts 74°
2026-05-01 14:41 48.72320 2.37910 289 ft 156 kts 74°
2026-05-01 14:41 48.72633 2.39616 644 ft 174 kts 76°
2026-05-01 14:41 48.72960 2.41384 1310 ft 177 kts 76°
2026-05-01 14:42 48.73286 2.43144 2007 ft 178 kts 75°
2026-05-01 14:42 48.73645 2.45003 2468 ft 193 kts 75°
2026-05-01 14:42 48.74015 2.47049 2887 ft 210 kts 77°
2026-05-01 14:42 48.74281 2.49294 3316 ft 227 kts 85°
2026-05-01 14:43 48.74356 2.51803 3695 ft 249 kts 91°
2026-05-01 14:43 48.74319 2.54486 4234 ft 266 kts 93°
2026-05-01 14:43 48.73980 2.57237 4999 ft 270 kts 117°
2026-05-01 14:43 48.72806 2.59379 5891 ft 269 kts 145°
2026-05-01 14:44 48.71133 2.60451 6779 ft 269 kts 167°
2026-05-01 14:44 48.67456 2.61635 8568 ft 274 kts 167°
2026-05-01 14:44 48.65603 2.62228 9438 ft 276 kts 171°
2026-05-01 14:45 48.63683 2.62140 10290 ft 280 kts 191°
2026-05-01 14:45 48.60014 2.59689 11420 ft 308 kts 205°
2026-05-01 14:45 48.58054 2.58140 11806 ft 326 kts 205°
2026-05-01 14:46 48.56005 2.56528 12274 ft 340 kts 204°
2026-05-01 14:46 48.51668 2.53155 13500 ft 357 kts 204°
2026-05-01 14:46 48.49481 2.51464 14277 ft 360 kts 204°
2026-05-01 14:47 48.47215 2.49818 15006 ft 362 kts 201°
2026-05-01 14:47 48.44908 2.48410 15711 ft 364 kts 197°
2026-05-01 14:47 48.42486 2.47201 16438 ft 367 kts 194°
2026-05-01 14:48 48.37585 2.44969 17775 ft 373 kts 194°
2026-05-01 14:48 48.35089 2.43834 18420 ft 376 kts 194°
2026-05-01 14:48 48.30022 2.41876 19726 ft 378 kts 183°
2026-05-01 14:49 48.24903 2.43173 20946 ft 380 kts 162°
2026-05-01 14:49 48.19824 2.45557 22083 ft 387 kts 162°
2026-05-01 14:50 48.15512 2.47568 23005 ft 392 kts 162°
2026-05-01 14:50 48.09426 2.50396 24276 ft 397 kts 162°
2026-05-01 14:51 48.06791 2.51617 24753 ft 401 kts 162°
2026-05-01 14:51 48.01453 2.54089 25664 ft 406 kts 162°
2026-05-01 14:52 47.96011 2.56607 26474 ft 412 kts 162°
2026-05-01 14:52 47.93275 2.57870 26868 ft 415 kts 162°
2026-05-01 14:52 47.87764 2.60407 27623 ft 420 kts 162°
2026-05-01 14:53 47.84938 2.61706 27984 ft 422 kts 162°
2026-05-01 14:53 47.82167 2.62980 28335 ft 424 kts 162°
2026-05-01 14:53 47.79343 2.64276 28666 ft 427 kts 162°
2026-05-01 14:53 47.76507 2.65579 28979 ft 429 kts 163°
2026-05-01 14:54 47.73626 2.66900 29293 ft 431 kts 163°
2026-05-01 14:54 47.70795 2.68194 29629 ft 431 kts 163°
2026-05-01 14:54 47.67923 2.69503 30090 ft 430 kts 163°
2026-05-01 14:54 47.65081 2.70801 30527 ft 427 kts 164°
2026-05-01 14:55 47.62252 2.72096 30848 ft 428 kts 165°
2026-05-01 14:55 47.59426 2.73385 31081 ft 430 kts 165°
2026-05-01 14:55 47.56552 2.74697 31326 ft 432 kts 165°
2026-05-01 14:55 47.53704 2.75986 31590 ft 434 kts 165°
2026-05-01 14:56 47.50825 2.77286 31901 ft 434 kts 165°
2026-05-01 14:56 47.47930 2.78596 32206 ft 434 kts 166°
2026-05-01 14:56 47.45047 2.79902 32473 ft 435 kts 166°
2026-05-01 14:56 47.42155 2.81210 32732 ft 436 kts 166°
2026-05-01 14:57 47.39266 2.82513 33059 ft 435 kts 166°
2026-05-01 14:57 47.33486 2.85118 33552 ft 437 kts 166°
2026-05-01 14:57 47.30599 2.86414 33741 ft 439 kts 166°
2026-05-01 14:58 47.27655 2.87737 33945 ft 441 kts 166°
2026-05-01 14:58 47.24715 2.89054 34138 ft 443 kts 166°
2026-05-01 14:58 47.21759 2.90380 34344 ft 444 kts 167°
2026-05-01 14:58 47.18823 2.91694 34514 ft 447 kts 167°
2026-05-01 14:59 47.15851 2.93022 34688 ft 448 kts 167°
2026-05-01 14:59 47.12875 2.94351 34877 ft 450 kts 167°
2026-05-01 14:59 47.09870 2.95694 35051 ft 451 kts 167°
2026-05-01 14:59 47.06882 2.97025 35189 ft 453 kts 167°
2026-05-01 15:00 46.97826 3.01055 35206 ft 454 kts 167°
2026-05-01 15:01 46.91788 3.03730 35193 ft 454 kts 167°
2026-05-01 15:01 46.85780 3.06386 35208 ft 454 kts 167°
2026-05-01 15:02 46.79715 3.09062 35202 ft 454 kts 167°
2026-05-01 15:02 46.73679 3.11719 35202 ft 455 kts 167°
2026-05-01 15:03 46.67654 3.14367 35202 ft 455 kts 167°
2026-05-01 15:03 46.61597 3.17022 35213 ft 455 kts 167°
2026-05-01 15:04 46.55576 3.19653 35217 ft 455 kts 167°
2026-05-01 15:04 46.49521 3.22292 35213 ft 454 kts 167°
2026-05-01 15:05 46.43486 3.24919 35214 ft 454 kts 166°
2026-05-01 15:05 46.37436 3.27546 35217 ft 454 kts 166°
2026-05-01 15:06 46.31380 3.30169 35212 ft 454 kts 166°
2026-05-01 15:06 46.25336 3.32782 35221 ft 455 kts 166°
2026-05-01 15:07 46.19291 3.35386 35225 ft 454 kts 166°
2026-05-01 15:07 46.13243 3.37988 35226 ft 454 kts 166°
2026-05-01 15:08 46.07217 3.40574 35228 ft 456 kts 166°
2026-05-01 15:08 46.01131 3.43180 35220 ft 456 kts 166°
2026-05-01 15:09 45.95086 3.45765 35218 ft 455 kts 166°
2026-05-01 15:09 45.89016 3.48352 35222 ft 455 kts 166°
2026-05-01 15:10 45.82948 3.50934 35222 ft 454 kts 166°
2026-05-01 15:10 45.73898 3.54771 35231 ft 455 kts 166°
2026-05-01 15:11 45.64819 3.58607 35240 ft 455 kts 165°
2026-05-01 15:12 45.58768 3.61158 35240 ft 455 kts 165°
2026-05-01 15:12 45.49667 3.64983 35241 ft 454 kts 165°
2026-05-01 15:14 45.34534 3.71351 35237 ft 455 kts 163°
2026-05-01 15:14 45.26209 3.77773 35296 ft 461 kts 143°
2026-05-01 15:15 45.21675 3.84182 35262 ft 464 kts 130°
2026-05-01 15:15 45.18059 3.91750 35258 ft 466 kts 124°
2026-05-01 15:16 45.11113 4.07112 35256 ft 465 kts 124°
2026-05-01 15:18 45.01992 4.25945 35256 ft 465 kts 131°
2026-05-01 15:19 44.93317 4.39408 35248 ft 465 kts 134°
2026-05-01 15:19 44.86763 4.49446 35243 ft 465 kts 133°
2026-05-01 15:20 44.80216 4.59444 35239 ft 466 kts 133°
2026-05-01 15:21 44.75808 4.66153 35228 ft 466 kts 134°
2026-05-01 15:21 44.71413 4.72830 35221 ft 467 kts 134°
2026-05-01 15:22 44.64788 4.82860 35219 ft 468 kts 134°
2026-05-01 15:22 44.60481 4.89608 35228 ft 468 kts 132°
2026-05-01 15:23 44.56202 4.96503 35235 ft 467 kts 132°
2026-05-01 15:23 44.51928 5.03334 34848 ft 469 kts 132°
2026-05-01 15:24 44.49778 5.06755 34164 ft 467 kts 132°
2026-05-01 15:24 44.47675 5.10096 33835 ft 458 kts 132°
2026-05-01 15:24 44.43428 5.16830 33682 ft 461 kts 132°
2026-05-01 15:25 44.41334 5.20147 33384 ft 462 kts 132°
2026-05-01 15:25 44.39181 5.23470 32780 ft 463 kts 134°
2026-05-01 15:25 44.36900 5.26628 32073 ft 464 kts 137°
2026-05-01 15:25 44.34486 5.29583 31698 ft 462 kts 141°
2026-05-01 15:26 44.31965 5.32372 31551 ft 466 kts 142°
2026-05-01 15:26 44.29414 5.35151 31299 ft 467 kts 142°
2026-05-01 15:26 44.26864 5.37925 31035 ft 467 kts 142°
2026-05-01 15:26 44.24300 5.40712 30634 ft 469 kts 142°
2026-05-01 15:27 44.21734 5.43501 29996 ft 470 kts 142°
2026-05-01 15:27 44.19149 5.46308 29274 ft 469 kts 142°
2026-05-01 15:27 44.16588 5.49089 28519 ft 469 kts 142°
2026-05-01 15:28 44.11528 5.54573 27540 ft 457 kts 142°
2026-05-01 15:28 44.09036 5.57269 27046 ft 453 kts 142°
2026-05-01 15:28 44.06570 5.59932 26555 ft 449 kts 142°
2026-05-01 15:29 44.01694 5.65188 25564 ft 441 kts 142°
2026-05-01 15:29 43.99284 5.67782 25061 ft 437 kts 142°
2026-05-01 15:29 43.94518 5.72913 24061 ft 429 kts 142°
2026-05-01 15:30 43.90634 5.77083 23225 ft 423 kts 142°
2026-05-01 15:31 43.80761 5.87639 20968 ft 406 kts 142°
2026-05-01 15:31 43.76342 5.92347 19929 ft 399 kts 142°
2026-05-01 15:32 43.71988 5.96978 18911 ft 392 kts 142°
2026-05-01 15:32 43.67721 6.01506 17881 ft 385 kts 142°
2026-05-01 15:33 43.61473 6.08173 16347 ft 376 kts 137°
2026-05-01 15:34 43.57603 6.17261 14786 ft 368 kts 110°